GW2386 Weather Reports


time (UTC)temp
F
wind
direction
speed
knots
gust
knots
rain 1hr
in
rain 24hr
in
rain mn
in
humidity
%
barometer
mb
20260506113100 54 84 0.9 5.2 0.07 0.07 0.07 86 1010.9
20260506111559 55 28 0.9 3.5 0.05 0.05 0.05 82 1011.3
20260506110057 56 49 1.7 3.5 0.00 0.00 0.00 79 1011.4
20260506104601 56 41 0.0 4.3 0.00 0.00 0.00 77 1011.6
20260506103101 56 30 1.7 4.3 0.00 0.00 0.00 77 1010.6
20260506101603 56 0 0.0 2.6 0.00 0.00 0.00 78 1010.6
20260506100108 56 16 0.9 3.5 0.00 0.00 0.00 78 1010.6
20260506094613 56 20 2.6 8.7 0.00 0.00 0.00 78 1010.0
20260506093107 57 336 2.6 4.3 0.00 0.00 0.00 78 1010.2
20260506091604 57 14 1.7 4.3 0.00 0.00 0.00 77 1009.8
20260506090108 58 23 0.9 3.5 0.00 0.00 0.00 75 1009.9
20260506084601 59 24 0.9 4.3 0.00 0.00 0.00 74 1009.6
20260506083103 60 24 1.7 7.0 0.00 0.00 0.00 73 1009.9
20260506081556 61 30 1.7 7.0 0.00 0.00 0.00 73 1010.2
20260506080109 62 26 0.9 5.2 0.00 0.00 0.00 72 1010.1
20260506073107 64 10 3.5 7.8 0.00 0.00 0.00 68 1009.8
20260506071557 64 71 1.7 4.3 0.00 0.00 0.00 67 1009.8
20260506061559 67 0 0.0 2.6 0.00 0.00 0.00 64 1009.1
20260506044554 72 0 0.0 3.5 0.00 0.00 0.00 42 1008.7
20260506043102 71 19 0.9 3.5 0.00 0.00 0.00 42 1008.6
20260506041557 71 0 0.0 0.9 0.00 0.00 0.00 44 1008.3
20260506040059 72 0 0.0 0.9 0.00 0.00 0.00 45 1008.2
20260506034558 73 0 0.0 0.9 0.00 0.00 0.00 44 1008.1
20260506033109 73 0 0.0 1.7 0.00 0.00 0.00 37 1008.2
20260506031556 74 0 0.0 1.7 0.00 0.00 0.00 36 1008.2
20260506024614 77 340 3.5 7.0 0.00 0.00 0.00 32 1007.8
20260506023106 78 337 6.1 8.7 0.00 0.00 0.00 31 1007.5
20260506021601 78 348 6.1 8.7 0.00 0.00 0.00 30 1007.5
20260506020100 78 325 6.1 7.8 0.00 0.00 0.00 30 1007.4
20260506014557 80 360 1.7 4.3 0.00 0.00 0.00 28 1007.3
20260506013101 81 352 2.6 5.2 0.00 0.00 0.00 26 1007.0
20260506011623 83 350 1.7 5.2 0.00 0.00 0.00 24 1006.8
20260506010110 84 296 3.5 9.6 0.00 0.00 0.00 23 1006.6
20260506004557 85 360 3.5 11.3 0.00 0.00 0.00 22 1006.7
20260506003056 86 271 4.3 10.4 0.00 0.00 0.00 23 1006.2
20260506001558 88 254 0.9 6.1 0.00 0.00 0.00 25 1005.9
20260506000100 88 236 2.6 5.2 0.00 0.00 0.00 25 1005.9
20260505234601 89 246 0.9 3.5 0.00 0.00 0.00 24 1005.7
20260505233057 89 253 1.7 7.8 0.00 0.00 0.00 23 1005.5
20260505231557 90 252 6.1 9.6 0.00 0.00 0.00 20 1005.7
20260505230059 92 284 5.2 9.6 0.00 0.00 0.00 19 1005.8
20260505224556 93 257 0.9 11.3 0.00 0.00 0.00 21 1005.7
20260505223055 92 273 2.6 10.4 0.00 0.00 0.00 21 1005.8
20260505221604 92 278 3.5 10.4 0.00 0.00 0.00 21 1005.8
20260505220103 92 360 7.0 13.9 0.00 0.00 0.00 20 1005.8
20260505214601 93 360 5.2 10.4 0.00 0.00 0.00 21 1005.8
20260505213055 92 222 6.1 10.4 0.00 0.00 0.00 21 1006.0
20260505211557 91 236 6.1 11.3 0.00 0.00 0.00 21 1006.1
20260505210057 92 259 5.2 10.4 0.00 0.00 0.00 21 1006.4
20260505204612 92 272 3.5 10.4 0.00 0.00 0.00 23 1006.5
20260505203105 92 247 4.3 10.4 0.00 0.00 0.00 23 1006.6
20260505201555 91 295 4.3 12.2 0.00 0.00 0.00 24 1006.6
20260505200056 91 268 2.6 11.3 0.00 0.00 0.00 24 1006.8
20260505194601 90 284 5.2 10.4 0.00 0.00 0.00 25 1006.9
20260505193056 90 295 4.3 12.2 0.00 0.00 0.00 26 1007.0
20260505191556 90 264 6.1 10.4 0.00 0.00 0.00 27 1007.0
20260505190058 90 276 4.3 13.9 0.00 0.00 0.00 29 1007.4
20260505184556 89 255 7.0 13.0 0.00 0.00 0.00 31 1007.6
20260505183057 89 315 4.3 12.2 0.00 0.00 0.00 33 1007.5
20260505181600 88 291 5.2 13.0 0.00 0.00 0.00 34 1007.7
20260505180055 88 248 3.5 10.4 0.00 0.00 0.00 36 1008.1
20260505174556 88 260 2.6 10.4 0.00 0.00 0.00 37 1008.0
20260505173055 86 360 4.3 11.3 0.00 0.00 0.00 40 1008.1
20260505171556 85 229 3.5 9.6 0.00 0.00 0.00 46 1008.1
20260505170055 84 229 2.6 8.7 0.00 0.00 0.00 49 1008.1
20260505164603 83 219 2.6 7.0 0.00 0.00 0.00 50 1008.0
20260505163056 82 254 4.3 8.7 0.00 0.00 0.00 53 1008.2
20260505161559 80 179 2.6 6.1 0.00 0.00 0.00 61 1008.0
20260505153109 78 215 1.7 7.8 0.00 0.00 0.00 68 1008.0
20260505151556 75 205 4.3 10.4 0.00 0.00 0.00 71 1007.9
20260505124609 67 228 0.9 2.6 0.00 0.00 0.00 85 1007.3
20260505123100 67 236 0.9 5.2 0.00 0.00 0.00 85 1007.2
20260505121556 67 261 0.9 4.3 0.00 0.00 0.00 85 1007.3
20260505120105 67 0 0.9 4.3 0.00 0.00 0.00 84 1007.0
20260505114554 67 182 1.7 4.3 0.00 0.00 0.00 84 1006.8